Location: Engle Ridge Observatory
(44.8122°N, 85.4398°W)
Time: 06:29:07
(UTC-04:00)

Daily predictions for brighter satellites

Satellite Brightness Start Highest point End
(mag) Time Altitude Azimuth Time Altitude Azimuth Time Altitude Azimuth
Cosmos 2084 3.3 21:41:30 10° NW 21:45:20 80° SW 21:49:16 10° SSE
Cosmos 1340 4.1 21:44:56 10° NNE 21:48:02 23° ENE 21:51:07 10° SE
Lacrosse 4 Rocket 2.5 21:46:00 10° NNW 21:50:09 34° NE 21:54:13 10° ESE
Cosmos 1869 Rocket 3.8 21:47:10 10° SSE 21:51:20 48° E 21:55:33 10° NNE
SAR-Lupe-4 3.9 21:53:00 10° SSE 21:56:29 51° ENE 21:59:58 10° N
Cosmos 2369 Rocket 2.2 21:53:50 10° SSW 21:59:27 71° ESE 22:05:09 10° NNE
Cosmos 158 Rocket 4.0 22:00:36 10° NNW 22:05:28 60° ENE 22:10:14 10° SSE
YAOGAN 6 2.8 22:02:08 10° S 22:05:50 79° W 22:09:31 10° NNW
Cosmos 1606 2.9 22:02:40 10° N 22:06:23 52° ENE 22:10:05 10° SSE
Cosmos 2221 Rocket 3.6 22:05:32 10° N 22:10:00 81° E 22:14:27 10° S
Meteor 1-29 2.9 22:09:41 10° NNE 22:13:12 73° E 22:16:40 10° S
Molniya-1 2.3 22:13:03 10° SW 22:14:43 68° NW 22:16:16 10° NE
COSMOS 2455 3.0 22:08:58 10° SSW 22:14:59 82° WNW 22:21:02 10° NNE
H-2A R/B 3.0 22:11:04 11° SE 22:15:35 34° ENE 22:20:20 10° N
Cosmos 1346 Rocket 4.5 22:12:36 10° NNW 22:16:12 33° W 22:19:49 10° SSW
GPS 2-04 Rocket1 4.3 22:14:21 10° SW 22:16:55 18° S 22:18:45 13° SSE
ATLAS 5 CENTAUR R/B 2.5 22:11:08 10° NW 22:17:04 77° NE 22:22:52 13° SE
SAR-Lupe-1 4.0 22:14:26 10° SSE 22:17:59 80° ENE 22:21:35 10° NNW
Lacrosse 5 rocket 1.0 22:16:04 10° SW 22:19:39 83° NW 22:23:20 10° NE
MetOp-B 4.2 22:14:48 10° SSE 22:20:05 65° ENE 22:25:25 10° N
Helios 1A 3.8 22:17:17 10° S 22:21:20 49° W 22:25:27 10° NNW
Aureole 3 2.6 22:19:34 10° S 22:22:34 85° W 22:25:36 10° N
Cosmos 1634 Rocket 4.5 22:17:16 10° NNW 22:23:30 65° W 22:29:44 10° S
ERS-1 Rocket 3.0 22:23:52 10° SSE 22:28:55 87° WSW 22:33:59 10° NNW
BREEZE-M DEB (TANK) 3.1 22:26:17 10° WNW 22:29:11 76° NNE 22:39:55 10° ESE
Cosmos 1656 Rocket 4.3 22:26:01 10° SSE 22:30:47 32° ESE 22:35:38 10° NE
Meteor 1-27 Rocket 3.8 22:26:57 10° N 22:32:42 64° ENE 22:37:24 15° SSE
Cosmos 1408 2.6 22:29:44 10° S 22:33:27 85° W 22:37:14 10° N
ARGOS 3.2 22:28:52 13° SSE 22:33:40 71° ENE 22:39:01 10° N
Meteor 1-10 Rocket 4.5 22:28:17 10° NNW 22:34:15 78° W 22:40:08 10° S
ISS -3.0 22:32:31 10° WSW 22:35:43 54° NNW 22:38:55 10° NE
H-2A R/B 4.1 22:33:48 10° E 22:35:46 13° ENE 22:37:47 10° NNE
Nadezhda 4 Rocket 4.3 22:30:13 11° SSE 22:35:49 46° E 22:41:39 10° NNE
Cosmos 1048 Rocket 4.2 22:33:52 10° NNW 22:39:12 73° WSW 22:43:45 14° S
Terra 3.1 22:37:35 16° ESE 22:40:18 26° ENE 22:44:13 10° N
USA 215 3.3 22:37:58 17° SE 22:43:20 87° SW 22:49:57 10° NW
YAOGAN 11 4.2 22:40:30 18° SSE 22:43:49 69° ENE 22:48:18 10° N
Cosmos 1825 2.8 22:47:07 10° SSW 22:50:50 55° W 22:54:33 10° N
Okean 1-7 4.4 22:47:11 10° NNW 22:51:15 37° W 22:55:17 10° SSW
Cosmos 1437 3.6 22:52:26 10° N 22:55:24 34° ENE 22:56:09 29° ESE
Cosmos 1782 4.2 22:52:08 10° NNW 22:55:48 35° W 22:59:26 10° SSW
Cosmos 2279 Rocket 4.4 22:49:54 10° NNW 22:56:04 61° W 23:02:10 10° S
Intercosmos 25 Rocket 4.3 22:48:52 10° N 22:56:26 69° ENE 22:59:26 23° SSE
TRAILBLAZER 4.5 22:54:47 10° SSW 22:59:16 68° ESE 23:03:49 10° NE
SPOT 5 3.2 22:56:52 17° S 23:01:00 79° WSW 23:06:18 10° NNW
Milstar 3 4.1 22:54:25 10° SW 23:02:46 25° S 23:05:33 21° SSE
Cosmos 2251 Rocket 3.8 22:59:49 10° NNW 23:04:59 55° ENE 23:07:41 27° SE
Cosmos 2227 Rocket 3.9 23:02:01 10° N 23:06:24 22° NE 23:10:00 13° E
CENTAUR R/B 2.9 23:01:28 10° SW 23:07:33 68° NW 23:14:34 10° NE
DMSP B5D2-2 4.3 23:03:09 10° NNE 23:08:15 51° E 23:11:06 25° SSE
SPOT 1/Viking Rocket 3.6 23:10:31 23° S 23:13:51 80° WSW 23:19:06 10° NNW
Cosmos 2219 3.5 23:08:31 10° NNW 23:14:13 60° ENE 23:17:12 28° SE
Cosmos 1943 Rocket 3.1 23:12:18 10° SW 23:17:43 50° WNW 23:23:08 10° NNE
Cosmos 1862 4.2 23:14:36 11° SSW 23:18:20 48° WNW 23:22:11 10° N
Cosmos 1812 3.6 23:16:18 10° N 23:19:53 34° ENE 23:20:33 32° E
Cosmos 1733 Rocket 3.3 23:17:38 16° SSW 23:21:00 64° W 23:25:20 10° N
Cosmos 1782 Rocket 4.3 23:23:54 33° ESE 23:24:33 34° E 23:28:33 10° NNE
Nimbus 7 Rocket 4.4 23:20:00 10° NNE 23:25:55 89° WNW 23:30:54 15° SSW
Lacrosse 4 Rocket 3.0 23:24:54 10° NW 23:28:46 29° WSW 23:30:55 19° SSW
GEOS 3 Rocket 3.6 23:30:20 33° SE 23:32:42 77° NE 23:37:58 10° NW
Cosmos 2344 3.8 23:27:04 10° SW 23:34:43 80° NW 23:43:33 10° NE
Sich 1 Rocket 3.5 23:34:14 41° S 23:35:40 72° E 23:40:05 10° NNE
Cosmos 1346 3.3 23:33:56 10° NNW 23:36:20 56° WNW 23:36:20 56° WNW
Gbstr 26 Del rocket 3.7 23:33:13 10° WNW 23:37:37 48° NNE 23:39:32 26° E
ATLAS CENTAUR R/B 1.2 23:39:00 57° SE 23:39:10 58° ESE 23:42:58 10° NE
Cosmos 405 Rocket 2.9 23:38:06 10° N 23:41:44 51° ENE 23:41:56 50° E
Meteor 2-20 Rocket 4.4 23:39:31 26° S 23:43:13 88° E 23:49:22 10° N
Cosmos 1655 Rocket 4.3 23:42:10 35° SE 23:44:27 51° E 23:50:27 10° NNE
Cosmos 1975 Rocket 3.3 23:40:03 10° N 23:44:28 58° ENE 23:45:23 48° SE
CZ-4C R/B 4.4 23:46:58 33° E 23:47:35 35° ENE 23:51:21 10° N
Cosmos 494 Rocket 4.4 23:42:37 10° NNW 23:47:42 54° WSW 23:49:47 33° SSW
Cosmos 1867 3.9 23:44:45 10° NW 23:50:04 54° WSW 23:51:55 37° S
Okean 1 3.9 23:46:24 10° N 23:50:12 41° ENE 23:50:24 41° E
Meteor 1-18 Rocket 4.3 23:45:42 10° N 23:51:27 74° E 23:53:31 41° SSE
BREEZE M DEB (TANK) 3.5 23:46:32 10° WSW 23:54:29 66° NNW 23:57:09 13° ENE
CARTOSAT-1 3.8 23:53:21 43° SSW 23:54:31 60° W 23:58:49 10° NNW
H-2A R/B 3.3 23:51:42 19° SSW 23:54:56 35° W 23:59:47 10° NNW
